Wind_Speed
53 53 53 52 53 53 54 55 55 53 51 51 52 53 54 54 52 52 53 54 54 56 57 58 58 58 58 57 56 56 56 56 54 54 53 52 52 51
52 52 52 52 52 53 53 53 53 52 49 48 49 50 51 51 50 48 49 50 51 52 55 56 55 56 55 54 54 55 55 55 55 54 54 53 52 51
51 51 51 52 52 52 51 51 50 49 47 45 45 46 47 47 47 46 46 47 49 49 51 52 52 51 51 51 52 53 53 54 54 54 53 52 51 51
50 50 50 51 50 49 49 49 48 46 46 43 42 43 44 44 44 42 42 43 45 46 48 48 47 48 48 49 49 50 50 51 51 52 52 51 50 50
50 50 50 49 48 47 47 46 46 44 44 42 41 41 41 41 40 39 39 40 40 40 41 43 43 44 46 47 47 47 47 47 48 48 48 49 48 48
49 49 48 46 45 44 44 43 43 42 41 39 39 38 39 39 39 38 37 37 37 37 37 37 38 40 42 44 45 45 44 44 44 44 44 45 45 44
46 46 44 43 42 41 41 41 40 39 38 38 37 36 36 36 36 36 36 34 33 34 34 34 36 38 38 40 41 41 41 41 41 41 42 42 42 42
42 41 40 39 39 39 39 38 37 37 36 35 35 34 34 35 35 35 34 34 32 33 34 34 34 35 36 37 38 38 39 38 38 39 38 37 37 38
39 37 37 37 38 38 37 35 34 34 34 33 33 32 32 32 32 33 34 33 33 33 33 32 33 34 33 34 34 35 36 36 36 36 35 34 34 34
37 36 36 36 36 36 35 33 32 33 33 32 31 31 30 30 30 31 31 31 31 32 32 32 31 31 32 32 33 33 33 32 33 33 33 33 33 33
35 35 35 34 33 33 31 30 30 30 31 29 28 28 28 28 29 29 29 29 29 29 29 29 28 28 29 30 30 30 30 29 29 30 30 31 31 31
32 32 31 31 30 29 28 28 28 28 28 27 27 26 26 26 26 26 26 27 27 26 27 27 27 26 26 26 27 28 28 28 28 27 28 29 30 29
30 29 29 28 27 26 26 26 25 25 26 26 27 27 26 25 24 24 26 26 25 24 25 26 26 26 25 25 25 26 26 27 27 27 27 28 29 28
28 27 27 26 25 25 24 24 23 23 24 25 26 26 25 24 24 23 24 24 23 22 22 22 23 24 25 25 24 24 25 24 24 25 26 27 27 25
28 26 25 24 23 23 22 21 21 21 22 23 23 23 23 22 22 22 22 22 21 19 18 19 21 23 24 23 22 22 23 24 24 24 24 24 23 23
26 25 24 23 22 21 20 18 18 19 18 18 18 19 20 20 21 21 21 20 20 19 18 18 19 20 21 21 21 21 21 21 22 22 21 21 21 20
25 23 22 21 21 19 18 17 16 15 16 15 14 15 16 17 17 18 18 18 18 17 17 17 17 17 18 19 19 18 19 19 18 18 19 19 18 18
22 21 20 20 19 18 17 16 14 13 14 13 12 13 15 16 16 16 17 17 17 17 16 15 16 16 17 17 17 16 17 17 16 16 16 17 16 16
21 20 19 19 18 16 15 13 12 11 12 12 11 12 13 14 15 15 16 15 16 15 14 14 14 15 16 15 14 14 15 15 15 15 15 14 14 14
20 19 18 17 15 13 12 10 9 9 9 10 11 11 12 13 14 15 14 13 13 14 13 13 13 14 14 13 13 13 14 13 13 13 13 12 12 13
18 17 16 15 13 12 10 8 7 7 7 8 10 10 11 12 13 13 13 13 12 12 11 11 11 12 13 13 13 13 13 12 12 13 12 11 11 11
16 16 15 14 12 10 8 6 6 7 7 8 9 9 10 10 11 11 11 11 10 10 10 10 10 10 11 12 11 11 10 10 10 11 10 11 11 10
14 14 13 12 10 8 7 7 7 7 7 7 8 9 9 9 9 9 10 10 9 9 11 11 11 11 11 11 10 10 10 10 9 9 9 9 10 10
Wind_Direction
286 285 283 282 281 280 279 279 279 279 276 273 271 269 268 267 268 268 265 263 262 259 257 255 255 254 254 256 257 258 258 259 259 260 261 264 266 267
287 285 283 282 283 281 280 279 279 279 277 274 273 270 269 267 267 268 266 264 261 259 257 256 255 254 254 255 255 256 257 258 259 259 260 262 263 266
289 287 285 283 283 282 280 279 278 278 276 274 274 271 269 268 267 268 267 266 262 259 257 256 255 254 254 254 254 256 257 258 259 259 260 261 262 265
290 289 286 284 284 283 280 278 276 275 274 273 273 270 269 269 268 268 269 267 263 259 256 255 255 254 252 253 255 255 257 258 257 259 259 260 262 264
290 290 289 286 283 282 280 277 275 274 273 272 271 269 268 268 267 268 268 265 263 259 257 255 255 252 252 253 254 256 257 257 258 259 260 260 262 263
293 291 290 286 282 281 279 276 274 273 273 271 269 268 267 266 266 266 265 263 260 258 257 255 253 252 252 254 255 256 256 257 259 260 260 261 261 261
294 291 290 287 283 281 279 277 274 271 271 269 268 267 266 266 265 264 263 260 258 257 255 255 254 253 254 255 255 257 257 258 260 261 261 260 259 261
295 293 291 289 285 282 280 278 274 271 269 268 266 266 266 265 264 262 260 258 256 255 254 254 254 253 255 256 256 256 256 257 259 260 259 260 259 260
298 296 293 291 287 282 278 277 273 270 269 268 266 264 264 262 262 259 258 258 257 254 254 254 255 254 255 256 256 256 257 257 259 258 257 256 256 258
299 298 295 293 289 284 278 274 273 270 267 267 266 262 261 260 259 257 255 255 254 253 254 254 253 254 255 256 257 259 259 259 259 257 255 255 258 259
300 298 296 294 291 285 278 274 271 269 265 264 264 261 259 256 256 255 252 252 252 252 251 252 252 254 255 256 257 259 259 259 256 254 254 256 257 258
302 300 298 296 293 288 282 275 271 266 262 262 261 259 257 254 253 250 247 247 250 250 249 248 249 252 253 254 257 258 257 255 252 254 255 256 257 257
304 301 298 296 293 290 286 278 271 265 262 261 260 257 255 253 250 248 247 247 247 250 250 249 250 252 253 253 257 258 255 253 252 254 255 258 257 258
306 304 300 297 294 292 288 281 271 264 262 262 260 255 253 251 248 245 245 246 248 249 248 249 250 251 254 256 257 257 254 250 252 254 253 254 255 254
307 305 302 299 296 294 290 282 273 267 263 262 258 252 249 247 247 244 243 244 246 244 245 247 250 252 254 256 255 256 252 247 249 251 252 251 251 251
304 303 301 300 298 296 292 284 275 267 261 257 251 248 248 246 244 240 238 242 242 243 244 246 250 252 254 253 253 253 246 245 246 248 250 250 249 249
302 300 299 299 298 295 291 285 276 264 257 251 248 248 245 241 239 234 234 236 235 237 240 245 248 250 252 251 250 248 242 240 240 244 247 244 241 240
304 302 301 301 299 296 290 284 273 260 253 248 245 241 236 233 230 228 231 229 228 232 236 241 243 247 251 250 246 239 235 234 237 240 238 236 237 238
304 302 301 303 302 299 292 283 270 257 246 242 240 234 230 228 227 228 226 227 229 232 237 243 247 249 248 245 240 232 229 230 232 230 228 230 232 231
303 302 303 305 303 297 291 278 264 249 241 238 235 230 227 226 225 224 223 225 228 233 239 244 243 243 240 235 230 221 216 220 222 221 220 222 224 225
302 302 303 304 301 294 286 272 254 241 234 231 226 221 221 220 221 224 227 229 230 232 232 232 233 233 230 225 219 210 207 210 213 213 213 216 218 220
301 302 302 302 298 288 273 256 240 236 232 227 223 221 221 219 219 222 225 223 220 220 218 218 219 217 211 205 200 198 199 202 204 206 210 215 213 208
298 299 300 298 292 278 257 244 243 241 234 224 222 221 216 217 215 214 213 213 213 209 205 205 202 198 194 193 193 193 193 193 194 193 193 194 195 195
Height
5597 5593 5590 5588 5585 5582 5579 5577 5574 5574 5575 5575 5573 5571 5570 5571 5571 5571 5573 5575 5576 5579 5582 5586 5591 5595 5599 5603 5606 5609 5612 5615 5618 5620 5622 5623 5624 5624
5582 5579 5576 5573 5570 5568 5565 5562 5559 5557 5558 5560 5559 5557 5556 5556 5557 5557 5558 5560 5561 5564 5567 5571 5575 5580 5584 5587 5590 5593 5596 5599 5602 5605 5607 5609 5610 5610
5568 5565 5562 5559 5556 5553 5551 5548 5546 5544 5543 5545 5545 5544 5543 5543 5543 5544 5545 5546 5548 5550 5553 5557 5561 5565 5569 5572 5575 5578 5582 5585 5588 5591 5593 5595 5596 5598
5555 5551 5548 5545 5542 5539 5537 5535 5533 5531 5530 5531 5532 5531 5531 5530 5531 5532 5532 5533 5535 5537 5541 5544 5548 5552 5555 5558 5562 5565 5568 5571 5574 5576 5579 5582 5584 5584
5542 5538 5534 5530 5528 5526 5523 5521 5520 5519 5518 5518 5519 5519 5519 5519 5519 5520 5521 5522 5524 5526 5529 5533 5536 5539 5543 5546 5549 5552 5555 5558 5561 5563 5565 5567 5569 5571
5529 5524 5520 5517 5515 5513 5511 5509 5507 5507 5506 5506 5507 5507 5508 5508 5509 5510 5511 5512 5514 5516 5519 5522 5525 5528 5531 5535 5538 5541 5543 5545 5548 5550 5553 5555 5557 5558
5517 5512 5508 5505 5502 5500 5498 5497 5496 5495 5495 5496 5496 5497 5498 5498 5499 5500 5502 5503 5505 5507 5510 5513 5516 5519 5521 5524 5527 5529 5532 5534 5536 5539 5541 5543 5545 5548
5505 5501 5497 5493 5490 5488 5487 5485 5485 5485 5486 5486 5487 5488 5489 5489 5490 5491 5492 5494 5497 5500 5501 5504 5507 5509 5512 5515 5517 5519 5521 5523 5526 5528 5530 5533 5535 5538
5494 5491 5487 5484 5480 5478 5477 5476 5476 5476 5476 5476 5478 5479 5480 5481 5481 5483 5484 5486 5489 5491 5493 5496 5498 5501 5503 5505 5507 5509 5512 5514 5516 5518 5521 5523 5526 5528
5485 5481 5477 5474 5470 5467 5466 5466 5466 5467 5467 5467 5468 5470 5471 5472 5472 5474 5476 5478 5481 5483 5485 5488 5490 5492 5495 5497 5499 5501 5503 5505 5507 5510 5512 5515 5517 5519
5477 5472 5468 5464 5461 5458 5457 5457 5458 5458 5458 5459 5460 5461 5462 5463 5464 5466 5468 5470 5473 5475 5477 5480 5482 5484 5487 5489 5491 5493 5495 5497 5500 5502 5505 5508 5510 5512
5469 5465 5460 5456 5453 5450 5448 5448 5449 5450 5450 5451 5452 5453 5454 5456 5457 5459 5461 5464 5466 5469 5471 5473 5476 5478 5481 5483 5485 5486 5488 5491 5493 5496 5498 5501 5503 5505
5462 5458 5454 5450 5446 5444 5442 5441 5441 5442 5443 5444 5445 5446 5447 5449 5451 5453 5455 5458 5461 5464 5466 5467 5470 5472 5475 5477 5479 5480 5482 5484 5486 5489 5491 5494 5496 5499
5455 5451 5448 5444 5441 5438 5436 5434 5434 5434 5436 5437 5438 5439 5441 5443 5445 5448 5450 5452 5455 5458 5460 5461 5464 5467 5469 5471 5473 5475 5476 5479 5481 5483 5486 5488 5490 5492
5449 5445 5442 5438 5435 5433 5430 5428 5428 5428 5429 5430 5432 5433 5435 5438 5440 5442 5444 5447 5449 5452 5454 5456 5458 5461 5463 5466 5468 5469 5471 5473 5475 5478 5480 5482 5485 5487
5443 5440 5436 5433 5430 5428 5425 5424 5423 5423 5424 5425 5427 5428 5430 5432 5434 5437 5439 5442 5444 5447 5449 5451 5453 5456 5458 5460 5462 5464 5466 5468 5470 5473 5475 5477 5480 5482
5438 5435 5432 5429 5426 5423 5421 5420 5419 5419 5420 5421 5422 5424 5426 5427 5430 5432 5435 5437 5440 5443 5445 5447 5449 5451 5453 5455 5458 5460 5462 5464 5466 5468 5471 5473 5476 5478
5432 5430 5427 5424 5422 5419 5418 5417 5416 5416 5417 5418 5419 5420 5422 5424 5426 5429 5431 5434 5436 5439 5441 5443 5445 5447 5449 5451 5454 5456 5458 5460 5462 5464 5467 5469 5472 5474
5428 5425 5423 5420 5418 5416 5414 5414 5413 5413 5414 5415 5416 5417 5419 5421 5423 5425 5428 5430 5432 5435 5437 5439 5441 5443 5445 5448 5450 5451 5454 5456 5458 5461 5463 5466 5468 5471
5423 5421 5418 5416 5414 5412 5411 5411 5410 5410 5411 5412 5413 5414 5416 5418 5420 5422 5424 5426 5429 5431 5433 5435 5437 5439 5442 5444 5446 5448 5450 5453 5456 5458 5461 5463 5465 5468
5419 5417 5415 5413 5411 5409 5409 5408 5408 5408 5409 5410 5411 5412 5413 5415 5417 5419 5421 5423 5425 5428 5430 5432 5433 5436 5438 5440 5443 5445 5448 5450 5453 5455 5458 5460 5463 5465
5415 5413 5411 5409 5408 5407 5406 5406 5407 5407 5407 5408 5409 5410 5411 5413 5414 5416 5418 5420 5422 5425 5427 5429 5431 5433 5435 5438 5441 5444 5446 5448 5450 5453 5455 5458 5460 5463
5411 5410 5408 5406 5405 5404 5404 5405 5405 5405 5406 5406 5407 5408 5409 5411 5412 5414 5416 5418 5420 5422 5425 5427 5429 5432 5434 5437 5440 5442 5444 5447 5449 5451 5453 5455 5458 5461